Content
SEND FEEDBACK

Daily
Averages
Monthly
Summary
France

LYON, FRANCE


Home > Europe > France
Elevation: 659 feet     Latitude: 45 43N     Longitude: 004 57E

WEATHER
 
SELECT A DAY
Number of Records: 153,289;   Date Range: 7/1/96 - 7/28/14
 
SHARE

PRINT THIS DATA

[ ← Previous Day ]
WEATHER ALMANAC - JULY 28, 2013
[ Next Day → ]
[ °C ]   °F
Weather ElementAverageHighLow
Temperature73.4 °F86 °F (12:30 am)64.4 °F (11:00 pm)
Dewpoint61.2 °F64.4 °F (11:00 am)50 °F (12:30 am)
Humidity69.1 %94 % (3:00 pm)29 % (12:30 am)
Barometer29.91 in30.04 in (11:00 pm)29.83 in (2:30 am)
Wind Speed7.6 mph18.4 mph (1:00 pm)
Weather ElementAverage
Visibility5.7 mi
Wind DirectionSSW (192.8 °)

Weather ElementTotal
Precipitation---
Cooling Degree Days10.2 (Base 65)
Growing Degree Days25.2 (Base 50)
Averaged from 47 records on July 28, 2013
WEATHER CONDITIONS BREAKOUT
WIND DIRECTION BREAKOUT
WEATHER BY HOUR - JULY 28, 2013
[ °C ]   °F
Local TimeTemperatureDewpointHumidityBarometerVisibilityWind DirectionWind SpeedGust SpeedPrecipitationEventsConditions
12:30 AM86.0 °F50.0 °F29 %29.86 in6.2 miSW (230°)10.4 mph
1:00 AM84.2 °F50.0 °F30 %29.86 in6.2 miSW (220°)10.4 mph
1:30 AM84.2 °F51.8 °F33 %29.86 in6.2 miSSW (200°)8.1 mph
2:00 AM82.4 °F53.6 °F37 %29.89 in6.2 miSSW (200°)9.2 mph
2:30 AM78.8 °F57.2 °F47 %29.83 in6.2 miSW (220°)3.5 mphRainLight Rain
3:00 AM77.0 °F59.0 °F54 %29.86 in6.2 miSW (220°)5.8 mph
3:30 AM75.2 °F60.8 °F61 %29.83 in6.2 miSSE (160°)4.6 mph
4:00 AM75.2 °F59.0 °F57 %29.83 in6.2 miSouth (180°)5.8 mph
4:30 AM77.0 °F57.2 °F50 %29.83 in6.2 miSouth (180°)12.7 mph
5:00 AM77.0 °F57.2 °F50 %29.83 in6.2 miSSE (160°)5.8 mph
5:30 AM75.2 °F57.2 °F53 %29.83 in6.2 miVariable3.5 mph
6:00 AM75.2 °F59.0 °F57 %29.83 in6.2 miEast (90°)4.6 mph
6:30 AM75.2 °F59.0 °F57 %29.83 in6.2 miVariable3.5 mph
7:00 AM73.4 °F59.0 °F61 %29.83 in6.2 miESE (120°)6.9 mph
7:30 AM75.2 °F59.0 °F57 %29.83 in6.2 miESE (110°)5.8 mph
8:00 AM75.2 °F59.0 °F57 %29.86 in6.2 miVariable3.5 mph
8:30 AM75.2 °F59.0 °F57 %29.86 in6.2 miNNE (20°)3.5 mph
9:00 AM77.0 °F59.0 °F54 %29.86 in6.2 miNNE (30°)3.5 mph
9:30 AM78.8 °F57.2 °F47 %29.86 in6.2 miNNE (20°)4.6 mph
10:00 AM78.8 °F60.8 °F54 %29.86 in6.2 miNorth (10°)10.4 mph
10:30 AM78.8 °F62.6 °F57 %29.89 in6.2 miNorth (10°)8.1 mph
11:00 AM78.8 °F64.4 °F61 %29.86 in6.2 miNNE (20°)10.4 mph
11:30 AM80.6 °F64.4 °F58 %29.86 in6.2 miNorth (10°)10.4 mph
12:00 PM80.6 °F64.4 °F58 %29.86 in6.2 miNorth (350°)10.4 mph
12:30 PM80.6 °F64.4 °F58 %29.86 in6.2 miNorth (350°)13.8 mph
1:00 PM78.8 °F64.4 °F61 %29.89 in6.2 miNNW (340°)18.4 mphMostly Cloudy
1:30 PM78.8 °F64.4 °F61 %29.89 in6.2 miNorth (350°)18.4 mphMostly Cloudy
2:00 PM75.2 °F64.4 °F69 %29.92 in6.2 miNNW (330°)17.3 mphRainLight Rain
2:30 PM71.6 °F62.6 °F73 %29.92 in6.2 miNorth (350°)15.0 mphRainLight Rain
3:00 PM66.2 °F64.4 °F94 %29.98 in1.2 miNW (310°)9.2 mphRain-ThunderstormHeavy Thunderstorms and Rain
3:30 PM66.2 °F64.4 °F94 %29.95 in5.0 miNorth (350°)9.2 mphRain-ThunderstormLight Rain
4:00 PM66.2 °F64.4 °F94 %29.98 in5.6 miNNW (330°)9.2 mphRain-ThunderstormThunderstorms and Rain
4:30 PM66.2 °F64.4 °F94 %29.98 in1.3 miNNW (340°)6.9 mphRain-ThunderstormHeavy Thunderstorms and Rain
5:00 PM66.2 °F64.4 °F94 %29.95 in6.2 miNW (320°)5.8 mphRain-ThunderstormThunderstorms and Rain
5:30 PM66.2 °F64.4 °F94 %29.98 in6.2 miNW (320°)5.8 mphRainLight Rain
6:00 PM66.2 °F64.4 °F94 %29.98 in6.2 miNW (320°)8.1 mphThunderstormThunderstorm
6:30 PM66.2 °F64.4 °F94 %29.98 in6.2 miNW (320°)4.6 mphRain-ThunderstormLight Rain
7:00 PM66.2 °F64.4 °F94 %29.98 in0.2 miNorth (350°)4.6 mphRain-ThunderstormHeavy Thunderstorms and Rain
7:30 PM66.2 °F64.4 °F94 %30.01 in6.2 miVariable2.3 mphRain-ThunderstormLight Thunderstorms and Rain
8:00 PM66.2 °F64.4 °F94 %29.98 in3.7 miVariable2.3 mphRainLight Rain
8:30 PM66.2 °F64.4 °F94 %29.98 in6.2 miWest (270°)5.8 mphRain-ThunderstormLight Rain
9:00 PM66.2 °F64.4 °F94 %29.98 in5.6 miNW (310°)4.6 mphRainRain
9:30 PM66.2 °F64.4 °F94 %29.98 in3.7 miNNW (330°)5.8 mphRain-ThunderstormThunderstorms and Rain
10:00 PM66.2 °F64.4 °F94 %29.98 in6.2 miWest (270°)3.5 mphRain-ThunderstormLight Rain
10:30 PM66.2 °F64.4 °F94 %30.01 in6.2 miVariable2.3 mphRain-ThunderstormLight Rain
11:00 PM64.4 °F62.6 °F94 %30.04 in6.2 miSW (220°)10.4 mphRain-ThunderstormLight Rain
11:30 PM64.4 °F62.6 °F94 %30.04 in6.2 miSW (220°)9.2 mphThunderstormThunderstorm
Hourly data recorded from LFLY, located miles away from Lyon, France







STORIES FROM OUR PARTNERS